Regional Weather Roundup
Issued by NWS

Home | Current Version | Previous Version | Text Only | Print | Product List | Glossary Off
Versions: 1 2 3 4 5 6 7 8 9 10 11 12 13 14 15 16 17 18 19 20 21 22 23 24 25 26 27 28 29 30 31 32 33 34 35 36 37 38 39 40 41 42 43 44 45 46 47 48 49 50

000
ASUS43 KFSD 280802
RWRSD

WEATHER ROUNDUP FOR SOUTH DAKOTA
NATIONAL WEATHER SERVICE SIOUX FALLS SD
300 AM CDT WED SEP 28 2016

NOTE: "FAIR" INDICATES FEW OR NO CLOUDS BELOW 12,000 FEET WITH NO
SIGNIFICANT WEATHER AND/OR OBSTRUCTIONS TO VISIBILITY.


SDZ001>005-009-010-012>017-280900-
NORTHWEST AND NORTH CENTRAL SOUTH DAKOTA

CITY           SKY/WX    TMP DP  RH WIND       PRES   REMARKS
BUFFALO          N/A     52  44  74 E3        30.05R
MOBRIDGE       CLOUDY    47  37  68 E6        30.07R
$$

SDZ012>016-024>037-041>051-057-063-072>074-280900-
SOUTHWEST AND SOUTH CENTRAL SOUTH DAKOTA

CITY           SKY/WX    TMP DP  RH WIND       PRES   REMARKS
RAPID CTY ARPT CLEAR     56  41  57 NW9       30.13R
PIERRE         CLOUDY    47  40  76 NE8       30.07R
CUSTER         CLEAR     47  35  63 NW6       30.24S
ELLSWORTH AFB  CLEAR     50  42  74 W6        30.12R
PHILIP         CLEAR     44  41  89 W5        30.08R
PINE RIDGE     CLEAR     41  39  93 NE6       30.12R
WINNER         FAIR      50  43  77 W3        30.08R
$$

SDZ004>011-016>023-039-040-280900-
NORTHEAST SOUTH DAKOTA

CITY           SKY/WX    TMP DP  RH WIND       PRES   REMARKS
ABERDEEN       CLOUDY    39  36  89 N8        30.09R
WATERTOWN      MOCLDY    44  42  93 N5        30.04R
SISSETON         N/A     45  41  86 NE8       30.06R
$$

SDZ017-020-022-023-036>040-048>070-280900-
SOUTHEAST SOUTH DAKOTA

CITY           SKY/WX    TMP DP  RH WIND       PRES   REMARKS
SIOUX FALLS    CLEAR     47  41  80 N8        30.02R
HURON          CLOUDY    36  34  92 NW7       30.06R
CHAMBERLAIN    CLEAR     53  38  58 N6        30.07R
MITCHELL       CLOUDY    43  36  76 NW6       30.06R
YANKTON        CLEAR     48  37  66 N8        30.01R
$$

ABBREVIATIONS USED IN REMARKS
   TC - TEMPERATURE IN CELSIUS
  WCI - WIND CHILL INDEX
   HX - HEAT INDEX
  VSB - VISIBILITY





USA.gov is the U.S. government's official web portal to all federal, state and local government web resources and services.